| time (UTC) | temp F | wind direction | speed MPH | gust MPH | rain 1hr in | rain 24hr in | rain mn in | humidity % | barometer mb |
| 20260505011104 | 75 | 240 | 0.0 | 0.0 | 0.00 | 0.00 | 0.00 | 52 | 1001.5 |
| 20260505010603 | 75 | 240 | 0.0 | 0.0 | 0.00 | 0.00 | 0.00 | 51 | 1001.4 |
| 20260505005601 | 76 | 240 | 0.0 | 0.0 | 0.00 | 0.00 | 0.00 | 50 | 1001.3 |
| 20260505005100 | 76 | 240 | 0.0 | 0.0 | 0.00 | 0.00 | 0.00 | 49 | 1001.2 |
| 20260505004559 | 77 | 240 | 0.0 | 0.0 | 0.00 | 0.00 | 0.00 | 48 | 1001.2 |
| 20260505004058 | 77 | 240 | 0.0 | 0.0 | 0.00 | 0.00 | 0.00 | 47 | 1001.2 |
| 20260505003557 | 77 | 240 | 0.0 | 0.0 | 0.00 | 0.00 | 0.00 | 47 | 1001.0 |
| 20260505003056 | 78 | 240 | 0.0 | 0.0 | 0.00 | 0.00 | 0.00 | 47 | 1001.0 |
| 20260505002555 | 78 | 240 | 0.0 | 0.0 | 0.00 | 0.00 | 0.00 | 47 | 1001.0 |
| 20260505002055 | 78 | 240 | 0.0 | 0.0 | 0.00 | 0.00 | 0.00 | 47 | 1001.0 |
| 20260505001553 | 78 | 240 | 0.0 | 0.0 | 0.00 | 0.00 | 0.00 | 46 | 1001.0 |
| 20260505001053 | 78 | 240 | 0.0 | 0.0 | 0.00 | 0.00 | 0.00 | 46 | 1001.0 |
| 20260505000552 | 78 | 240 | 0.0 | 0.0 | 0.00 | 0.00 | 0.00 | 45 | 1001.0 |
| 20260505000051 | 78 | 240 | 0.0 | 0.0 | 0.00 | 0.00 | 0.00 | 44 | 1001.0 |
| 20260504235549 | 79 | 240 | 0.0 | 0.0 | 0.00 | 0.00 | 0.00 | 44 | 1001.0 |
| 20260504235048 | 79 | 240 | 0.0 | 0.0 | 0.00 | 0.00 | 0.00 | 43 | 1001.0 |
| 20260504234547 | 79 | 240 | 0.0 | 0.0 | 0.00 | 0.00 | 0.00 | 42 | 1001.0 |
| 20260504234046 | 79 | 240 | 0.0 | 0.0 | 0.00 | 0.00 | 0.00 | 43 | 1001.0 |
| 20260504233545 | 79 | 240 | 0.0 | 3.0 | 0.00 | 0.00 | 0.00 | 41 | 1001.2 |
| 20260504233044 | 79 | 293 | 0.0 | 0.0 | 0.00 | 0.00 | 0.00 | 41 | 1001.2 |
| 20260504232543 | 79 | 293 | 0.0 | 0.0 | 0.00 | 0.00 | 0.00 | 41 | 1001.0 |
| 20260504232042 | 80 | 293 | 0.0 | 0.0 | 0.00 | 0.00 | 0.00 | 40 | 1001.2 |
| 20260504231541 | 80 | 293 | 0.0 | 1.0 | 0.00 | 0.00 | 0.00 | 40 | 1001.0 |
| 20260504231041 | 80 | 210 | 8.0 | 8.0 | 0.00 | 0.00 | 0.00 | 40 | 1001.2 |
| 20260504230539 | 80 | 227 | 0.0 | 5.0 | 0.00 | 0.00 | 0.00 | 39 | 1001.2 |
| 20260504230038 | 80 | 225 | 0.0 | 0.0 | 0.00 | 0.00 | 0.00 | 40 | 1001.2 |
| 20260504225537 | 80 | 225 | 0.0 | 7.0 | 0.00 | 0.00 | 0.00 | 39 | 1001.2 |
| 20260504225037 | 80 | 196 | 0.0 | 0.0 | 0.00 | 0.00 | 0.00 | 39 | 1001.2 |
| 20260504224535 | 80 | 196 | 0.0 | 3.0 | 0.00 | 0.00 | 0.00 | 40 | 1001.0 |
| 20260504224034 | 80 | 241 | 0.0 | 2.0 | 0.00 | 0.00 | 0.00 | 40 | 1001.2 |
| 20260504223533 | 80 | 171 | 0.0 | 0.0 | 0.00 | 0.00 | 0.00 | 40 | 1001.2 |
| 20260504223032 | 80 | 171 | 0.0 | 2.0 | 0.00 | 0.00 | 0.00 | 42 | 1001.2 |
| 20260504222531 | 79 | 212 | 0.0 | 2.0 | 0.00 | 0.00 | 0.00 | 42 | 1001.2 |
| 20260504222030 | 79 | 220 | 0.0 | 0.0 | 0.00 | 0.00 | 0.00 | 43 | 1001.3 |
| 20260504221529 | 79 | 220 | 0.0 | 5.0 | 0.00 | 0.00 | 0.00 | 42 | 1001.4 |
| 20260504221028 | 79 | 239 | 0.0 | 6.0 | 0.00 | 0.00 | 0.00 | 42 | 1001.3 |
| 20260504220528 | 79 | 191 | 0.0 | 6.0 | 0.00 | 0.00 | 0.00 | 41 | 1001.3 |
| 20260504220026 | 79 | 254 | 0.0 | 13.0 | 0.00 | 0.00 | 0.00 | 44 | 1001.4 |
| 20260504215525 | 79 | 217 | 3.0 | 8.0 | 0.00 | 0.00 | 0.00 | 43 | 1001.4 |
| 20260504215024 | 79 | 240 | 3.0 | 10.0 | 0.00 | 0.00 | 0.00 | 42 | 1001.5 |
| 20260504214701 | 79 | 270 | 5.0 | 9.0 | 0.00 | 0.00 | 0.00 | 42 | 1001.5 |
| 20260504214523 | 79 | 270 | 5.0 | 9.0 | 0.00 | 0.00 | 0.00 | 42 | 1001.5 |
| 20260504214400 | 80 | 171 | 4.0 | 12.0 | 0.00 | 0.00 | 0.00 | 41 | 1001.5 |
| 20260504214022 | 80 | 270 | 1.0 | 10.0 | 0.00 | 0.00 | 0.00 | 42 | 1001.5 |
| 20260504213521 | 80 | 171 | 4.0 | 12.0 | 0.00 | 0.00 | 0.00 | 41 | 1001.5 |
| 20260504213020 | 80 | 206 | 3.0 | 3.0 | 0.00 | 0.00 | 0.00 | 43 | 1001.5 |
| 20260504212519 | 80 | 264 | 0.0 | 8.0 | 0.00 | 0.00 | 0.00 | 42 | 1001.5 |
| 20260504212018 | 80 | 177 | 3.0 | 12.0 | 0.00 | 0.00 | 0.00 | 41 | 1001.5 |
| 20260504211517 | 80 | 212 | 2.0 | 11.0 | 0.00 | 0.00 | 0.00 | 39 | 1001.5 |
| 20260504211016 | 81 | 232 | 1.0 | 20.0 | 0.00 | 0.00 | 0.00 | 41 | 1001.4 |
| 20260504210515 | 81 | 213 | 6.0 | 13.0 | 0.00 | 0.00 | 0.00 | 39 | 1001.4 |
| 20260504210014 | 82 | 164 | 1.0 | 14.0 | 0.00 | 0.00 | 0.00 | 38 | 1001.5 |
| 20260504205513 | 82 | 216 | 0.0 | 6.0 | 0.00 | 0.00 | 0.00 | 35 | 1001.6 |
| 20260504205012 | 82 | 270 | 0.0 | 0.0 | 0.00 | 0.00 | 0.00 | 38 | 1001.6 |
| 20260504204511 | 82 | 270 | 0.0 | 5.0 | 0.00 | 0.00 | 0.00 | 35 | 1001.7 |
| 20260504204010 | 82 | 260 | 2.0 | 8.0 | 0.00 | 0.00 | 0.00 | 33 | 1001.7 |
| 20260504203509 | 82 | 225 | 0.0 | 6.0 | 0.00 | 0.00 | 0.00 | 35 | 1001.9 |
| 20260504203008 | 82 | 213 | 0.0 | 7.0 | 0.00 | 0.00 | 0.00 | 35 | 1001.8 |
| 20260504202507 | 82 | 104 | 0.0 | 7.0 | 0.00 | 0.00 | 0.00 | 38 | 1001.8 |
| 20260504202006 | 82 | 180 | 0.0 | 5.0 | 0.00 | 0.00 | 0.00 | 39 | 1001.9 |
| 20260504201505 | 82 | 227 | 0.0 | 7.0 | 0.00 | 0.00 | 0.00 | 40 | 1001.9 |
| 20260504201004 | 82 | 191 | 0.0 | 10.0 | 0.00 | 0.00 | 0.00 | 38 | 1001.9 |
| 20260504200503 | 82 | 187 | 7.0 | 11.0 | 0.00 | 0.00 | 0.00 | 36 | 1001.9 |
| 20260504200002 | 82 | 206 | 2.0 | 2.0 | 0.00 | 0.00 | 0.00 | 36 | 1002.0 |
| 20260504195502 | 82 | 188 | 1.0 | 6.0 | 0.00 | 0.00 | 0.00 | 36 | 1002.0 |
| 20260504195000 | 81 | 184 | 0.0 | 7.0 | 0.00 | 0.00 | 0.00 | 38 | 1002.0 |
| 20260504194459 | 81 | 230 | 0.0 | 9.0 | 0.00 | 0.00 | 0.00 | 37 | 1002.0 |
| 20260504193958 | 81 | 253 | 3.0 | 9.0 | 0.00 | 0.00 | 0.00 | 38 | 1002.0 |
| 20260504193457 | 81 | 167 | 0.0 | 6.0 | 0.00 | 0.00 | 0.00 | 38 | 1002.0 |
| 20260504192957 | 81 | 253 | 0.0 | 6.0 | 0.00 | 0.00 | 0.00 | 38 | 1002.0 |
| 20260504192455 | 81 | 195 | 0.0 | 15.0 | 0.00 | 0.00 | 0.00 | 39 | 1002.0 |
| 20260504191954 | 80 | 323 | 2.0 | 8.0 | 0.00 | 0.00 | 0.00 | 40 | 1002.1 |
| 20260504191453 | 80 | 191 | 0.0 | 4.0 | 0.00 | 0.00 | 0.00 | 41 | 1002.1 |
| 20260504190952 | 80 | 157 | 0.0 | 3.0 | 0.00 | 0.00 | 0.00 | 41 | 1002.2 |
| 20260504190451 | 80 | 232 | 3.0 | 8.0 | 0.00 | 0.00 | 0.00 | 39 | 1002.3 |
| 20260504185950 | 80 | 264 | 3.0 | 10.0 | 0.00 | 0.00 | 0.00 | 39 | 1002.3 |
| 20260504185449 | 80 | 229 | 2.0 | 10.0 | 0.00 | 0.00 | 0.00 | 42 | 1002.3 |
| 20260504184948 | 79 | 181 | 0.0 | 10.0 | 0.00 | 0.00 | 0.00 | 40 | 1002.3 |
| 20260504184447 | 79 | 217 | 0.0 | 8.0 | 0.00 | 0.00 | 0.00 | 42 | 1002.3 |
| 20260504183946 | 79 | 253 | 0.0 | 9.0 | 0.00 | 0.00 | 0.00 | 42 | 1002.3 |
| 20260504183446 | 79 | 227 | 4.0 | 11.0 | 0.00 | 0.00 | 0.00 | 39 | 1002.4 |
| 20260504182945 | 79 | 244 | 0.0 | 1.0 | 0.00 | 0.00 | 0.00 | 42 | 1002.4 |
| 20260504182443 | 78 | 274 | 2.0 | 4.0 | 0.00 | 0.00 | 0.00 | 42 | 1002.4 |
| 20260504181942 | 78 | 191 | 0.0 | 9.0 | 0.00 | 0.00 | 0.00 | 42 | 1002.5 |
| 20260504181441 | 78 | 185 | 2.0 | 6.0 | 0.00 | 0.00 | 0.00 | 41 | 1002.5 |
| 20260504180940 | 78 | 274 | 0.0 | 9.0 | 0.00 | 0.00 | 0.00 | 41 | 1002.5 |
| 20260504180439 | 78 | 165 | 4.0 | 11.0 | 0.00 | 0.00 | 0.00 | 43 | 1002.5 |
| 20260504175939 | 78 | 268 | 0.0 | 9.0 | 0.00 | 0.00 | 0.00 | 41 | 1002.7 |
| 20260504175437 | 78 | 270 | 0.0 | 6.0 | 0.00 | 0.00 | 0.00 | 43 | 1002.7 |
| 20260504174936 | 78 | 217 | 0.0 | 9.0 | 0.00 | 0.00 | 0.00 | 43 | 1002.8 |
| 20260504174435 | 77 | 232 | 0.0 | 8.0 | 0.00 | 0.00 | 0.00 | 43 | 1002.7 |
| 20260504173934 | 78 | 180 | 8.0 | 12.0 | 0.00 | 0.00 | 0.00 | 43 | 1002.7 |
| 20260504173433 | 78 | 217 | 3.0 | 11.0 | 0.00 | 0.00 | 0.00 | 40 | 1002.8 |
| 20260504172933 | 77 | 147 | 0.0 | 12.0 | 0.00 | 0.00 | 0.00 | 44 | 1002.9 |
| 20260504172432 | 77 | 227 | 4.0 | 7.0 | 0.00 | 0.00 | 0.00 | 44 | 1002.8 |
| 20260504171931 | 77 | 185 | 12.0 | 13.0 | 0.00 | 0.00 | 0.00 | 45 | 1002.9 |
| 20260504171430 | 77 | 215 | 0.0 | 7.0 | 0.00 | 0.00 | 0.00 | 43 | 1003.0 |
| 20260504170929 | 77 | 262 | 3.0 | 11.0 | 0.00 | 0.00 | 0.00 | 41 | 1003.0 |
| 20260504170427 | 77 | 168 | 0.0 | 4.0 | 0.00 | 0.00 | 0.00 | 43 | 1003.0 |
| 20260504160415 | 73 | 226 | 0.0 | 13.0 | 0.00 | 0.00 | 0.00 | 46 | 1003.1 |
| 20260504150904 | 71 | 205 | 10.0 | 15.0 | 0.00 | 0.00 | 0.00 | 51 | 1003.2 |
| 20260504150403 | 70 | 251 | 2.0 | 7.0 | 0.00 | 0.00 | 0.00 | 52 | 1003.2 |
| 20260504140853 | 67 | 265 | 5.0 | 7.0 | 0.00 | 0.00 | 0.00 | 55 | 1003.5 |
| 20260504140351 | 67 | 243 | 5.0 | 10.0 | 0.00 | 0.00 | 0.00 | 54 | 1003.5 |
| 20260504130340 | 66 | 230 | 3.0 | 5.0 | 0.00 | 0.00 | 0.00 | 54 | 1003.2 |
| 20260504110315 | 63 | 192 | 7.0 | 9.0 | 0.00 | 0.00 | 0.00 | 57 | 1003.5 |
| 20260504100303 | 64 | 172 | 1.0 | 2.0 | 0.00 | 0.00 | 0.00 | 54 | 1004.4 |
| 20260504081742 | 64 | 216 | 2.0 | 6.0 | 0.00 | 0.00 | 0.00 | 56 | 1004.6 |
| 20260504081241 | 64 | 203 | 3.0 | 3.0 | 0.00 | 0.00 | 0.00 | 56 | 1004.7 |
| 20260504080740 | 64 | 226 | 0.0 | 0.0 | 0.00 | 0.00 | 0.00 | 56 | 1004.8 |
| 20260504080239 | 64 | 226 | 0.0 | 3.0 | 0.00 | 0.00 | 0.00 | 56 | 1004.8 |
| 20260504070227 | 66 | 233 | 1.0 | 6.0 | 0.00 | 0.00 | 0.00 | 51 | 1005.7 |
| 20260504060215 | 64 | 240 | 0.0 | 2.0 | 0.00 | 0.00 | 0.00 | 56 | 1006.5 |
| 20260504050704 | 64 | 189 | 0.0 | 0.0 | 0.00 | 0.00 | 0.00 | 62 | 1007.3 |
| 20260504050203 | 64 | 189 | 0.0 | 0.0 | 0.00 | 0.00 | 0.00 | 61 | 1007.3 |
| 20260504045702 | 65 | 189 | 0.0 | 0.0 | 0.00 | 0.00 | 0.00 | 60 | 1007.3 |
| 20260504045201 | 65 | 189 | 0.0 | 0.0 | 0.00 | 0.00 | 0.00 | 60 | 1007.2 |
| 20260504044700 | 65 | 189 | 0.0 | 0.0 | 0.00 | 0.00 | 0.00 | 60 | 1007.2 |
| 20260504044159 | 65 | 189 | 0.0 | 0.0 | 0.00 | 0.00 | 0.00 | 59 | 1007.3 |
| 20260504043658 | 65 | 189 | 0.0 | 0.0 | 0.00 | 0.00 | 0.00 | 57 | 1007.3 |
| 20260504043157 | 65 | 189 | 0.0 | 0.0 | 0.00 | 0.00 | 0.00 | 59 | 1007.3 |
| 20260504042656 | 65 | 189 | 0.0 | 0.0 | 0.00 | 0.00 | 0.00 | 59 | 1007.4 |
| 20260504042155 | 66 | 189 | 0.0 | 0.0 | 0.00 | 0.00 | 0.00 | 58 | 1007.4 |
| 20260504041654 | 66 | 189 | 0.0 | 0.0 | 0.00 | 0.00 | 0.00 | 57 | 1007.3 |
| 20260504041153 | 66 | 189 | 0.0 | 0.0 | 0.00 | 0.00 | 0.00 | 58 | 1007.3 |
| 20260504040652 | 65 | 189 | 0.0 | 0.0 | 0.00 | 0.00 | 0.00 | 59 | 1007.1 |
| 20260504040151 | 65 | 189 | 0.0 | 0.0 | 0.00 | 0.00 | 0.00 | 58 | 1007.2 |
| 20260504035650 | 65 | 189 | 0.0 | 0.0 | 0.00 | 0.00 | 0.00 | 59 | 1007.2 |
| 20260504035149 | 65 | 189 | 0.0 | 0.0 | 0.00 | 0.00 | 0.00 | 58 | 1007.2 |
| 20260504034648 | 66 | 189 | 0.0 | 0.0 | 0.00 | 0.00 | 0.00 | 59 | 1007.2 |
| 20260504034147 | 66 | 189 | 0.0 | 0.0 | 0.00 | 0.00 | 0.00 | 56 | 1007.3 |
| 20260504033646 | 66 | 189 | 0.0 | 0.0 | 0.00 | 0.00 | 0.00 | 56 | 1007.3 |
| 20260504033145 | 66 | 189 | 0.0 | 0.0 | 0.00 | 0.00 | 0.00 | 56 | 1007.5 |
| 20260504032644 | 67 | 189 | 0.0 | 0.0 | 0.00 | 0.00 | 0.00 | 55 | 1007.5 |
| 20260504032143 | 67 | 189 | 0.0 | 0.0 | 0.00 | 0.00 | 0.00 | 55 | 1007.5 |
| 20260504031642 | 67 | 189 | 0.0 | 0.0 | 0.00 | 0.00 | 0.00 | 54 | 1007.5 |
| 20260504031141 | 67 | 189 | 0.0 | 0.0 | 0.00 | 0.00 | 0.00 | 54 | 1007.4 |
| 20260504030640 | 67 | 189 | 0.0 | 0.0 | 0.00 | 0.00 | 0.00 | 54 | 1007.4 |
| 20260504030139 | 67 | 189 | 0.0 | 0.0 | 0.00 | 0.00 | 0.00 | 54 | 1007.4 |
| 20260504025638 | 68 | 189 | 0.0 | 0.0 | 0.00 | 0.00 | 0.00 | 54 | 1007.5 |
| 20260504025137 | 68 | 189 | 0.0 | 0.0 | 0.00 | 0.00 | 0.00 | 52 | 1007.5 |
| 20260504024636 | 68 | 189 | 0.0 | 0.0 | 0.00 | 0.00 | 0.00 | 53 | 1007.5 |
| 20260504024135 | 69 | 189 | 0.0 | 0.0 | 0.00 | 0.00 | 0.00 | 52 | 1007.4 |
| 20260504023634 | 69 | 189 | 0.0 | 0.0 | 0.00 | 0.00 | 0.00 | 51 | 1007.4 |
| 20260504023133 | 68 | 189 | 0.0 | 0.0 | 0.00 | 0.00 | 0.00 | 49 | 1007.4 |
| 20260504022632 | 68 | 189 | 0.0 | 0.0 | 0.00 | 0.00 | 0.00 | 56 | 1007.4 |
| 20260504022131 | 67 | 189 | 0.0 | 0.0 | 0.00 | 0.00 | 0.00 | 52 | 1007.2 |
| 20260504021630 | 68 | 189 | 0.0 | 0.0 | 0.00 | 0.00 | 0.00 | 54 | 1007.3 |
| 20260504021129 | 68 | 189 | 0.0 | 0.0 | 0.00 | 0.00 | 0.00 | 54 | 1007.3 |
| 20260504020628 | 68 | 189 | 0.0 | 0.0 | 0.00 | 0.00 | 0.00 | 54 | 1007.4 |
| 20260504020127 | 69 | 189 | 0.0 | 0.0 | 0.00 | 0.00 | 0.00 | 52 | 1007.4 |
| 20260504015626 | 69 | 189 | 0.0 | 0.0 | 0.00 | 0.00 | 0.00 | 52 | 1007.4 |
| 20260504015125 | 69 | 189 | 0.0 | 0.0 | 0.00 | 0.00 | 0.00 | 51 | 1007.4 |
| 20260504014624 | 69 | 189 | 0.0 | 0.0 | 0.00 | 0.00 | 0.00 | 51 | 1007.3 |
| 20260504014123 | 70 | 189 | 0.0 | 0.0 | 0.00 | 0.00 | 0.00 | 50 | 1007.4 |
| 20260504013622 | 70 | 189 | 0.0 | 0.0 | 0.00 | 0.00 | 0.00 | 50 | 1007.2 |
| 20260504013121 | 71 | 189 | 0.0 | 0.0 | 0.00 | 0.00 | 0.00 | 49 | 1007.3 |
| 20260504012620 | 71 | 189 | 0.0 | 0.0 | 0.00 | 0.00 | 0.00 | 48 | 1007.3 |
| 20260504012120 | 71 | 189 | 0.0 | 0.0 | 0.00 | 0.00 | 0.00 | 47 | 1007.4 |
| 20260504011618 | 72 | 189 | 0.0 | 0.0 | 0.00 | 0.00 | 0.00 | 47 | 1007.4 |